This is the latest recevied weather packets stored in our database for station/object KQ4UWH. If no packets are shown the sender has not sent any weather packets the latest 1 day(s).
| Time | Temp. | Humidity | Pressure | Rain* | Wind** | Luminosity | Snow |
|---|---|---|---|---|---|---|---|
| 1777988150 | 16.67° C | 71% | 1239.7 hPa | 0 mm | 0 m/s | 34 W/m² | - |
| 1777987846 | 16.11° C | 72% | 1239.7 hPa | 0 mm | 0 m/s | 37 W/m² | - |
| 1777987543 | 16.11° C | 73% | 1239.7 hPa | 0 mm | 0 m/s | 32 W/m² | - |
| 1777987241 | 15.56° C | 73% | 1239.7 hPa | 0 mm | 0 m/s | 32 W/m² | - |
| 1777986937 | 15.56° C | 74% | 1239.7 hPa | 0 mm | 0 m/s | 31 W/m² | - |
| 1777986635 | 15° C | 77% | 1239.7 hPa | 0 mm | 0 m/s | 30 W/m² | - |
| 1777986333 | 13.89° C | 79% | 1239.7 hPa | 0 mm | 0 m/s | 30 W/m² | - |
| 1777986031 | 13.33° C | 82% | 1239.7 hPa | 0 mm | 0 m/s | 29 W/m² | - |
| 1777985727 | 13.33° C | 85% | 1239.7 hPa | 0 mm | 0 m/s | 29 W/m² | - |
| 1777985424 | 12.78° C | 87% | 1239.7 hPa | 0 mm | 0 m/s | 32 W/m² | - |
| 1777985121 | 12.78° C | 89% | 1239.7 hPa | 0 mm | 0 m/s | 28 W/m² | - |
| 1777984817 | 12.22° C | 90% | 1239.7 hPa | 0 mm | 0 m/s | 28 W/m² | - |
| 1777984514 | 12.22° C | 90% | 1239.7 hPa | 0 mm | 0 m/s | 28 W/m² | - |
| 1777984209 | 12.22° C | 90% | 1239.7 hPa | 0 mm | 0 m/s | 24 W/m² | - |
| 1777983907 | 11.67° C | 90% | 1239.7 hPa | 0 mm | 0 m/s | 26 W/m² | - |
| 1777983604 | 11.67° C | 90% | 1239.7 hPa | 0 mm | 0 m/s | 30 W/m² | - |
| 1777983300 | 11.67° C | 89% | 1239.7 hPa | 0 mm | 0 m/s | 34 W/m² | - |
| 1777982996 | 11.67° C | 89% | 1239.7 hPa | 0 mm | 0 m/s | 24 W/m² | - |
| 1777982693 | 11.67° C | 89% | 1239.7 hPa | 0 mm | 0 m/s | 20 W/m² | - |
| 1777982392 | 11.67° C | 88% | 1239.7 hPa | 0 mm | 0 m/s | 22 W/m² | - |
| 1777982089 | 11.11° C | 88% | 1239.7 hPa | 0 mm | 0 m/s | 24 W/m² | - |
| 1777981787 | 11.11° C | 87% | 1239.7 hPa | 0 mm | 0 m/s | 27 W/m² | - |
| 1777981482 | 11.11° C | 87% | 1239.7 hPa | 0 mm | 0 m/s | 21 W/m² | - |
| 1777981180 | 11.11° C | 87% | 1239.7 hPa | 0 mm | 0 m/s | 17 W/m² | - |
| 1777980876 | 11.11° C | 86% | 1239.7 hPa | 0 mm | 0 m/s | 14 W/m² | - |
* Rain latest hour (hover to see other rain measurements)
** Current wind speed in m/s (hover to see current wind gust speed)